FW9556 Weather Reports


Display with metric or nautical units.
time (UTC)temp
F
wind
direction
speed
MPH
gust
MPH
rain 1hr
in
rain 24hr
in
rain mn
in
humidity
%
barometer
mb
20260508141608 50 190 5.0 10.0 0.00 0.02 0.00 78 1017.2
20260508140039 50 190 3.0 9.0 0.00 0.02 0.00 77 1017.1
20260508134551 50 190 2.0 7.0 0.00 0.02 0.00 79 1017.0
20260508133037 50 190 3.0 8.0 0.00 0.02 0.00 80 1017.0
20260508131543 50 190 3.0 8.0 0.00 0.02 0.00 79 1016.9
20260508130040 51 190 2.0 5.0 0.00 0.02 0.00 79 1016.7
20260508124539 50 190 3.0 6.0 0.00 0.02 0.00 80 1016.5
20260508123046 49 190 4.0 7.0 0.00 0.02 0.00 82 1016.5
20260508121545 49 190 3.0 8.0 0.00 0.02 0.00 82 1016.4
20260508120047 49 190 3.0 6.0 0.00 0.02 0.00 82 1016.4
20260508114542 49 190 3.0 6.0 0.00 0.02 0.00 81 1016.3
20260508113049 50 190 3.0 6.0 0.00 0.02 0.00 81 1016.2
20260508111537 52 190 2.0 5.0 0.00 0.02 0.00 79 1015.9
20260508110040 52 0 0.0 0.0 0.00 0.02 0.00 70 1015.8
20260508104539 52 0 0.0 3.0 0.00 0.02 0.00 70 1015.7
20260508103039 51 0 0.0 2.0 0.00 0.02 0.00 73 1015.6
20260508101541 51 190 0.0 4.0 0.00 0.02 0.00 73 1015.6
20260508100039 51 190 2.0 6.0 0.00 0.02 0.00 75 1015.6
20260508094538 50 190 0.0 4.0 0.00 0.02 0.00 74 1015.5
20260508093044 50 0 0.0 3.0 0.00 0.02 0.00 77 1015.3
20260508091549 50 190 1.0 3.0 0.00 0.02 0.00 80 1015.2
20260508090048 49 0 0.0 6.0 0.00 0.02 0.00 80 1015.1
20260508084538 49 190 1.0 3.0 0.00 0.02 0.00 81 1014.9
20260508083104 49 190 1.0 3.0 0.00 0.02 0.00 85 1014.9
20260508081539 48 190 2.0 3.0 0.00 0.02 0.00 86 1014.8
20260508080040 48 0 0.0 0.0 0.00 0.02 0.00 86 1014.5
20260508074548 48 0 0.0 0.0 0.00 0.02 0.00 89 1014.4
20260508073037 47 0 0.0 0.0 0.00 0.02 0.00 92 1014.2
20260508071541 46 0 0.0 0.0 0.00 0.02 0.00 94 1014.1
20260508070042 46 0 0.0 0.0 0.00 0.02 0.00 95 1013.9
20260508064549 45 0 0.0 0.0 0.00 0.02 0.00 96 1013.8
20260508063038 45 0 0.0 0.0 0.00 0.02 0.00 97 1013.7
20260508061537 45 0 0.0 0.0 0.00 0.02 0.00 97 1013.5
20260508060037 44 0 0.0 0.0 0.00 0.02 0.00 97 1013.2
20260508054536 44 0 0.0 0.0 0.00 0.02 0.00 97 1013.1
20260508053046 43 0 0.0 0.0 0.00 0.02 0.00 96 1013.1
20260508051540 43 0 0.0 0.0 0.00 0.02 0.00 96 1013.0
20260508050038 43 0 0.0 0.0 0.00 0.02 0.00 96 1012.8
20260508044538 43 0 0.0 0.0 0.00 0.02 0.00 96 1012.8
20260508043045 44 0 0.0 0.0 0.00 0.02 0.00 95 1012.6
20260508041542 44 0 0.0 0.0 0.00 0.02 0.00 95 1012.5
20260508040043 44 0 0.0 0.0 0.00 0.02 0.00 95 1012.4
20260508034538 44 0 0.0 0.0 0.00 0.02 0.00 95 1012.3
20260508033038 45 0 0.0 0.0 0.00 0.02 0.00 95 1012.3
20260508031537 45 0 0.0 0.0 0.00 0.02 0.00 95 1012.2
20260508030043 45 0 0.0 0.0 0.00 0.02 0.00 95 1012.2
20260508024540 45 0 0.0 0.0 0.00 0.02 0.00 95 1012.1
20260508023040 45 0 0.0 0.0 0.00 0.02 0.00 94 1012.1
20260508021546 45 0 0.0 0.0 0.00 0.02 0.00 94 1012.0
20260508020038 45 0 0.0 0.0 0.00 0.02 0.00 94 1011.9
20260508014537 45 0 0.0 0.0 0.00 0.02 0.00 94 1011.7
20260508013041 45 190 0.0 1.0 0.00 0.02 0.00 94 1011.8
20260508011539 45 0 0.0 2.0 0.00 0.02 0.00 94 1011.7
20260508010038 45 190 0.0 3.0 0.00 0.02 0.00 93 1011.7
20260508004540 45 190 0.0 2.0 0.00 0.02 0.00 93 1011.7
20260508003038 46 190 1.0 2.0 0.00 0.02 0.00 92 1011.6
20260508001539 46 0 0.0 1.0 0.00 0.02 0.00 91 1011.6
20260508000036 47 0 0.0 3.0 0.00 0.02 0.00 91 1011.6
20260507234537 47 0 0.0 2.0 0.00 0.02 0.00 90 1011.4
20260507233038 47 190 0.0 1.0 0.00 0.02 0.00 90 1011.4
20260507231537 48 0 0.0 2.0 0.00 0.02 0.00 89 1011.3
20260507230048 48 190 0.0 2.0 0.00 0.02 0.00 88 1011.4
20260507224543 48 0 0.0 3.0 0.00 0.02 0.02 88 1011.3
20260507223038 48 190 0.0 3.0 0.00 0.02 0.02 88 1011.2
20260507221537 48 190 0.0 2.0 0.00 0.02 0.02 88 1011.2
20260507220038 48 0 0.0 0.0 0.00 0.02 0.02 89 1011.0
20260507214554 49 0 0.0 0.0 0.00 0.02 0.02 88 1011.1
20260507213040 50 0 0.0 5.0 0.00 0.02 0.02 87 1010.9
20260507211538 50 190 1.0 7.0 0.00 0.02 0.02 86 1010.8
20260507210051 51 190 2.0 8.0 0.00 0.02 0.02 84 1010.6
20260507204538 50 190 1.0 6.0 0.00 0.02 0.02 85 1010.4
20260507203047 50 190 2.0 6.0 0.00 0.02 0.02 84 1010.3
20260507201543 50 190 2.0 5.0 0.00 0.02 0.02 84 1010.3
20260507200043 50 190 2.0 6.0 0.00 0.02 0.02 84 1010.1
20260507194608 51 190 2.0 5.0 0.00 0.02 0.02 85 1009.9
20260507193041 51 190 2.0 6.0 0.00 0.02 0.02 83 1009.9
20260507191542 52 190 3.0 8.0 0.00 0.02 0.02 82 1009.8
20260507190037 52 190 4.0 8.0 0.00 0.02 0.02 81 1010.0
20260507184540 52 190 3.0 9.0 0.00 0.02 0.02 80 1009.8
20260507183055 53 190 3.0 11.0 0.00 0.02 0.02 80 1009.8
20260507181539 55 190 4.0 11.0 0.00 0.02 0.02 77 1009.7
20260507180041 55 190 4.0 11.0 0.00 0.02 0.02 77 1009.8
20260507174543 55 190 4.0 10.0 0.00 0.02 0.02 77 1009.7
20260507173039 55 190 3.0 9.0 0.00 0.02 0.02 77 1009.7
20260507171545 54 190 4.0 11.0 0.00 0.02 0.02 78 1009.7
20260507170046 54 190 4.0 9.0 0.00 0.02 0.02 79 1009.8
20260507164538 56 0 5.0 15.0 0.00 0.02 0.02 76 1009.7
20260507163040 55 190 4.0 11.0 0.00 0.02 0.02 76 1009.7
20260507161540 54 190 2.0 10.0 0.00 0.02 0.02 78 1009.9
20260507160037 54 190 4.0 10.0 0.00 0.02 0.02 77 1010.0
20260507154537 52 190 4.0 11.0 0.00 0.02 0.02 79 1010.1
20260507153043 52 190 3.0 9.0 0.00 0.02 0.02 77 1010.1
20260507151539 53 190 4.0 8.0 0.00 0.02 0.02 77 1010.0
20260507150038 52 190 2.0 10.0 0.01 0.02 0.02 79 1010.0
20260507144537 52 190 3.0 7.0 0.02 0.02 0.02 79 1010.3
20260507143038 51 190 2.0 10.0 0.02 0.02 0.02 82 1010.4